Regional Weather Roundup
Issued by NWS

Home | Current Version | Previous Version | Text Only | Print | Product List | Glossary On
Versions: 1 2 3 4 5 6 7 8 9 10 11 12 13 14 15 16 17 18 19 20 21 22 23 24 25 26 27 28 29 30 31 32 33 34 35 36 37 38 39 40 41 42 43 44 45 46 47 48 49 50
807
ASUS43 KOAX 280410
RWRNE

WEATHER ROUNDUP FOR NEBRASKA
NATIONAL WEATHER SERVICE OMAHA NE
1100 PM CDT WED JUL 27 2016

NOTES: SATELLITE DATA IS BEING USED TO AUGMENT CLOUD COVER ABOVE
       12000 FEET.
       "FAIR" INDICATES FEW OR NO CLOUDS BELOW 12,000 FEET WITH NO
       SIGNIFICANT WEATHER AND/OR OBSTRUCTIONS TO VISIBILITY.

  * THESE STATIONS DO NOT REPORT WEATHER SUCH AS RAIN...SNOW OR FOG.

NEZ001>004-019>022-054>056-280500-
NEBRASKA PANHANDLE

CITY           SKY/WX    TMP DP  RH WIND       PRES   REMARKS
SCOTTSBLUFF    CLOUDY    74  58  57 NE13      30.19R
ALLIANCE       MOCLDY    71  61  70 E12       30.20R
CHADRON        CLOUDY    71  61  70 E9        30.15S
SIDNEY         MOCLDY    67  61  81 E7        30.20R
$$

NEZ057>060-069>072-079>082-280500-
SOUTHWEST NEBRASKA

CITY           SKY/WX    TMP DP  RH WIND       PRES   REMARKS
NORTH PLATTE   CLEAR     67  62  84 NE8       30.13R
IMPERIAL       CLOUDY    75  63  66 E10       30.12S
LEXINGTON      CLEAR     70  64  81 N6        30.11R
MCCOOK         MOCLDY    75  68  78 E8        30.08R
OGALLALA       MOCLDY    73  56  54 E12       30.14R
$$

NEZ005>010-023>029-035>040-094-280500-
NORTH CENTRAL NEBRASKA

CITY           SKY/WX    TMP DP  RH WIND       PRES   REMARKS
VALENTINE      PTCLDY    61  57  87 MISG      30.13R
AINSWORTH      PTCLDY    62  59  93 SE3       30.13F
BROKEN BOW     CLEAR     65  62  90 N9        30.13R
O`NEILL        CLOUDY    68  59  72 NW10      30.09F
ORD            MOCLDY    67  61  81 N6        30.10R
THEDFORD       CLEAR     65  60  83 E5        30.17S
$$

NEZ041-046>049-061>064-073>077-083>087-280500-
SOUTH CENTRAL NEBRASKA

CITY           SKY/WX    TMP DP  RH WIND       PRES   REMARKS
GRAND ISLAND   MOCLDY    72  67  84 N5        30.07R
AURORA         CLOUDY    71  69  92 N6        30.06R
HASTINGS       CLOUDY    72  67  84 NE3       30.08R
HEBRON         CLOUDY    74  68  81 CALM      30.02S
HOLDREGE       CLEAR     71  68  92 N3        30.08S
KEARNEY *      CLEAR     73  16  11 N10       30.09R
YORK           PTCLDY    72  68  88 N7        30.05R
$$

NEZ011>018-030>034-042>045-280500-
NORTHEAST NEBRASKA

CITY           SKY/WX    TMP DP  RH WIND       PRES   REMARKS
NORFOLK        CLOUDY    69  61  75 NW8       30.04R
ALBION         MOCLDY    66  60  80 NW9G16    30.08R
BLAIR          CLEAR     76  67  76 N3        30.00R
FREMONT        PTCLDY    75  67  76 NW6       30.01R
TEKAMAH        PTCLDY    76  67  73 NW13      29.99R
WAYNE          CLOUDY    67  64  88 W6        30.04R
$$

NEZ050>053-065>068-078-088>093-280500-
SOUTHEAST NEBRASKA

CITY           SKY/WX    TMP DP  RH WIND       PRES   REMARKS
LINCOLN        CLEAR     76  68  76 N5        30.01R
OMAHA EPPLEY   PTCLDY    76  70  82 W3        29.98R
BEATRICE       CLEAR     72  69  90 N6        30.01R
FALLS CITY     CLEAR     75  71  87 NW5       29.97R
NEBRASKA CITY  CLEAR     74  72  92 CALM      29.99S
PLATTSMOUTH    CLEAR     73  70  90 CALM      30.00S
$$

NEZ044-045-051>053-067-280500-
OMAHA AREA

CITY           SKY/WX    TMP DP  RH WIND       PRES   REMARKS
OMAHA EPPLEY   PTCLDY    76  70  82 W3        29.98R
BLAIR          CLEAR     76  67  76 N3        30.00R
FREMONT        PTCLDY    75  67  76 NW6       30.01R
MILLARD        PTCLDY    77  68  73 CALM      29.99R
OFFUTT AFB     CLEAR     72  69  93 CALM      29.98R
PLATTSMOUTH    CLEAR     73  70  90 CALM      30.00S
WAHOO          FAIR      73  69  88 NW6       30.00R
$$




USA.gov is the U.S. government's official web portal to all federal, state and local government web resources and services.